Weather History for Dumas, TX

Change the Weather History Date:

Wednesday, August 14, 2013

  Actual Average (KBGD) Record (KBGD)
Temperature  
Mean Temperature 72 °F 81 °F  
Max Temperature 81 °F 93 °F 102 °F (2010)
Min Temperature 63 °F 69 °F 57 °F (1992)
Degree Days  
Heating Degree Days 0 0  
Month to date heating degree days 0  
Since 1 June heating degree days 3  
Since 1 July heating degree days 0  
Cooling Degree Days 7 16  
Month to date cooling degree days 232  
Year to date cooling degree days 1313  
Since 1 June cooling degree days 1116  
Growing Degree Days 22 (Base 50)    
Moisture  
Dew Point 64 °F    
Average Humidity 84    
Maximum Humidity 99    
Minimum Humidity 50    
Precipitation  
Precipitation 0.24 in 0.10 in 1.47 in (1980)
Month to date precipitation 1.25  
Year to date precipitation 14.09  
Snow  
Snow 0.00 in - - ()
Month to date snowfall  
Since 1 June snowfall  
Since 1 July snowfall  
Snow Depth -    
Sea Level Pressure  
Sea Level Pressure 30.17 in    
Wind  
Wind Speed 9 mph (SE)    
Max Wind Speed 21 mph    
Max Gust Speed 29 mph    
Visibility 8 miles    
Events Rain    
T = Trace of Precipitation, MM = Missing Value Source: NWS Daily Summary

Daily Weather History Graph

Daily Weather History Graph

Search for Another Location

Airport:

Trip Planner

Search our weather history database for the weather conditions in past years. The results will help you decide how hot, cold, wet, or windy it might be!

Date:

Astronomy

Aug. 14, 2013 Rise Set
Actual Time 7:06 AM CDT 8:38 PM CDT
Civil Twilight 6:38 AM CDT 9:05 PM CDT
Nautical Twilight 6:06 AM CDT 9:38 PM CDT
Astronomical Twilight 5:31 AM CDT 10:12 PM CDT
Moon 2:50 PM CDT (8/14) 12:32 AM CDT (8/14)
Length of Visible Light 14h 26m
Length of Day
13h 32m
First Quarter, 53% of the Moon is Illuminated
Aug 14
First Quarter
Aug 20
Full
Aug 28
Last Quarter
Sep 5
New
Sep 12
First Quarter

Hourly Weather History & Observations

Time (CDT) Temp. Heat Index Dew Point Humidity Pressure Visibility Wind Dir Wind Speed Gust Speed Precip Events Conditions
12:15 AM 69.1 °F - 64.9 °F 87% 30.19 in 10.0 mi ESE 11.5 mph - N/A   Clear
12:35 AM 68.5 °F - 65.1 °F 89% 30.20 in 10.0 mi East 8.1 mph - N/A   Clear
12:55 AM 68.0 °F - 65.1 °F 90% 30.20 in 10.0 mi ESE 9.2 mph - N/A   Clear
1:15 AM 67.5 °F - 64.9 °F 92% 30.20 in 10.0 mi ESE 6.9 mph - N/A   Clear
1:35 AM 66.7 °F - 65.3 °F 95% 30.20 in 10.0 mi SE 4.6 mph - N/A   Clear
1:55 AM 66.2 °F - 64.9 °F 96% 30.20 in 10.0 mi ESE 4.6 mph - N/A   Clear
2:15 AM 66.4 °F - 65.3 °F 96% 30.19 in 10.0 mi ESE 8.1 mph - N/A   Clear
2:35 AM 66.0 °F - 65.3 °F 98% 30.18 in 7.0 mi SSE 8.1 mph - N/A   Clear
2:55 AM 65.8 °F - 65.3 °F 98% 30.17 in 5.0 mi SSE 5.8 mph - N/A   Clear
3:15 AM 65.3 °F - 64.8 °F 98% 30.19 in 5.0 mi SSE 5.8 mph - N/A   Scattered Clouds
3:35 AM 66.7 °F - 65.7 °F 96% 30.19 in 7.0 mi SE 8.1 mph - N/A   Mostly Cloudy
3:55 AM 67.1 °F - 65.7 °F 95% 30.19 in 7.0 mi ESE 5.8 mph - N/A   Overcast
4:15 AM 67.1 °F - 65.8 °F 96% 30.19 in 7.0 mi ESE 8.1 mph - N/A   Overcast
4:35 AM 66.7 °F - 65.8 °F 97% 30.19 in 5.0 mi ESE 5.8 mph - N/A   Overcast
4:55 AM 66.2 °F - 65.5 °F 98% 30.19 in 4.0 mi ESE 4.6 mph - N/A   Overcast
5:15 AM 66.4 °F - 65.8 °F 98% 30.20 in 4.0 mi East 4.6 mph - N/A   Overcast
5:35 AM 66.6 °F - 66.2 °F 99% 30.19 in 3.0 mi SE 3.5 mph - N/A   Overcast
5:55 AM 66.6 °F - 66.0 °F 98% 30.19 in 3.0 mi SSE 4.6 mph - N/A   Overcast
6:15 AM 66.4 °F - 65.7 °F 98% 30.20 in 4.0 mi SE 5.8 mph - N/A   Overcast
6:35 AM 66.6 °F - 65.7 °F 97% 30.20 in 4.0 mi SE 4.6 mph - N/A   Overcast
6:55 AM 66.4 °F - 65.7 °F 98% 30.20 in 4.0 mi SE 5.8 mph - N/A   Overcast
7:15 AM 66.4 °F - 65.5 °F 97% 30.20 in 4.0 mi SE 4.6 mph - N/A   Overcast
7:35 AM 66.4 °F - 65.7 °F 98% 30.20 in 3.0 mi SE 6.9 mph - N/A   Overcast
7:55 AM 66.4 °F - 65.7 °F 98% 30.21 in 3.0 mi SE 6.9 mph - N/A   Mostly Cloudy
8:15 AM 66.7 °F - 65.3 °F 95% 30.22 in 5.0 mi SE 6.9 mph - N/A   Overcast
8:35 AM 67.1 °F - 65.8 °F 96% 30.21 in 3.0 mi SE 9.2 mph - N/A   Overcast
8:55 AM 67.1 °F - 66.0 °F 96% 30.22 in 3.0 mi SE 8.1 mph - N/A   Overcast
9:15 AM 68.0 °F - 66.0 °F 93% 30.22 in 4.0 mi SE 6.9 mph - N/A   Overcast
9:35 AM 68.5 °F - 65.5 °F 90% 30.23 in 5.0 mi SSE 5.8 mph - N/A   Overcast
9:55 AM 69.1 °F - 65.5 °F 88% 30.24 in 7.0 mi SE 6.9 mph - N/A   Overcast
10:15 AM 68.7 °F - 66.0 °F 91% 30.24 in 5.0 mi SE 10.4 mph - N/A   Overcast
10:35 AM 69.6 °F - 66.0 °F 88% 30.24 in 5.0 mi SE 10.4 mph - N/A   Overcast
10:55 AM 70.5 °F - 66.0 °F 86% 30.24 in 7.0 mi SSE 9.2 mph - N/A   Mostly Cloudy
11:15 AM 70.0 °F - 65.5 °F 86% 30.24 in 10.0 mi SSE 9.2 mph - N/A   Overcast
11:35 AM 70.5 °F - 65.3 °F 83% 30.24 in 10.0 mi SE 10.4 mph - N/A   Mostly Cloudy
11:55 AM 71.8 °F - 66.0 °F 82% 30.24 in 10.0 mi SE 10.4 mph - N/A   Mostly Cloudy
12:15 PM 73.9 °F - 66.0 °F 76% 30.22 in 10.0 mi SSE 12.7 mph - N/A   Mostly Cloudy
12:35 PM 72.9 °F - 64.6 °F 75% 30.21 in 10.0 mi South 10.4 mph - N/A   Mostly Cloudy
12:55 PM 75.4 °F - 66.0 °F 73% 30.21 in 10.0 mi SSE 10.4 mph - N/A   Scattered Clouds
1:15 PM 75.6 °F - 64.8 °F 69% 30.20 in 10.0 mi South 9.2 mph - N/A   Scattered Clouds
1:35 PM 76.6 °F - 64.6 °F 66% 30.19 in 10.0 mi South 15.0 mph - N/A   Scattered Clouds
1:55 PM 77.5 °F - 65.1 °F 65% 30.18 in 10.0 mi South 10.4 mph - N/A   Scattered Clouds
2:55 PM 78.3 °F - 63.5 °F 60% 30.16 in 10.0 mi South 10.4 mph 17.3 mph N/A   Scattered Clouds
3:15 PM 78.4 °F - 64.0 °F 61% 30.15 in 10.0 mi South 9.2 mph - N/A   Scattered Clouds
3:35 PM 80.2 °F 81.9 °F 64.2 °F 58% 30.15 in 10.0 mi SSE 8.1 mph - N/A   Scattered Clouds
3:55 PM 79.5 °F - 63.1 °F 57% 30.14 in 10.0 mi South 8.1 mph - N/A   Scattered Clouds
4:15 PM 79.2 °F - 64.0 °F 60% 30.12 in 10.0 mi South 6.9 mph - N/A   Scattered Clouds
4:35 PM 80.8 °F 82.1 °F 63.1 °F 55% 30.11 in 10.0 mi SSW 10.4 mph 16.1 mph N/A   Clear
4:55 PM 81.0 °F 82.2 °F 63.1 °F 54% 30.11 in 10.0 mi South 10.4 mph - N/A   Scattered Clouds
5:15 PM 81.3 °F 82.9 °F 64.2 °F 56% 30.10 in 10.0 mi South 12.7 mph - N/A   Clear
5:35 PM 80.1 °F 81.5 °F 63.3 °F 56% 30.08 in 10.0 mi South 11.5 mph - N/A   Scattered Clouds
5:55 PM 80.8 °F 81.8 °F 61.9 °F 52% 30.09 in 10.0 mi South 10.4 mph - N/A   Clear
6:15 PM 81.0 °F 81.7 °F 60.6 °F 50% 30.08 in 10.0 mi South 9.2 mph - N/A   Clear
6:35 PM 79.9 °F - 61.3 °F 53% 30.08 in 10.0 mi South 6.9 mph - N/A   Clear
6:55 PM 80.2 °F 81.0 °F 60.3 °F 50% 30.11 in 10.0 mi Calm Calm - N/A   Scattered Clouds
7:15 PM 67.5 °F - 60.4 °F 78% 30.13 in 10.0 mi NE 19.6 mph 28.8 mph N/A   Overcast
7:35 PM 65.3 °F - 60.3 °F 84% 30.12 in 10.0 mi NE 20.7 mph 27.6 mph N/A   Scattered Clouds
7:55 PM 65.8 °F - 60.6 °F 83% 30.13 in 10.0 mi NE 15.0 mph 24.2 mph N/A   Scattered Clouds
8:15 PM 66.0 °F - 62.1 °F 87% 30.13 in 7.0 mi ENE 19.6 mph 24.2 mph 0.01 in Rain Rain
8:35 PM 64.8 °F - 61.2 °F 88% 30.14 in 10.0 mi ESE 11.5 mph - 0.23 in Rain Light Rain
8:55 PM 64.2 °F - 61.7 °F 91% 30.12 in 10.0 mi South 10.4 mph - 0.24 in Rain Rain
9:15 PM 64.4 °F - 60.8 °F 88% 30.12 in 10.0 mi SE 11.5 mph - N/A   Scattered Clouds
9:35 PM 63.7 °F - 61.0 °F 91% 30.13 in 10.0 mi ESE 13.8 mph - N/A   Clear
9:55 PM 64.6 °F - 63.1 °F 95% 30.13 in 10.0 mi SE 11.5 mph - N/A   Scattered Clouds
10:15 PM 64.4 °F - 63.5 °F 97% 30.14 in 7.0 mi SE 12.7 mph - N/A   Scattered Clouds
10:35 PM 64.8 °F - 64.0 °F 98% 30.15 in 5.0 mi SSE 11.5 mph - N/A   Mostly Cloudy
10:55 PM 64.4 °F - 63.5 °F 97% 30.16 in 5.0 mi South 8.1 mph - N/A   Scattered Clouds
11:15 PM 63.9 °F - 62.6 °F 96% 30.16 in 10.0 mi South 6.9 mph - N/A   Clear
11:35 PM 63.7 °F - 62.1 °F 94% 30.16 in 10.0 mi South 6.9 mph - N/A   Clear
11:55 PM 63.5 °F - 62.1 °F 95% 30.16 in 10.0 mi South 8.1 mph - N/A   Clear